Weather History for PAHN - July, 2013

Change the Weather History Date:

Friday, July 26, 2013

  Actual Average Record
Temperature  
Mean Temperature 60 °F -  
Max Temperature 64 °F 61 °F 80 °F (1982)
Min Temperature 57 °F 51 °F 40 °F (1976)
Degree Days  
Heating Degree Days 6    
Growing Degree Days 10 (Base 50)    
Moisture  
Dew Point 53 °F    
Average Humidity 81    
Maximum Humidity 88    
Minimum Humidity 70    
Precipitation  
Precipitation 0.01 in - - ()
Sea Level Pressure  
Sea Level Pressure 30.21 in    
Wind  
Wind Speed 7 mph (East)    
Max Wind Speed 10 mph    
Max Gust Speed 16 mph    
Visibility 10 miles    
Events Rain    
Averages and records for this station are not official NWS values.
T = Trace of Precipitation, MM = Missing Value Source: NWS Daily Summary

Daily Weather History Graph

Daily Weather History Graph

Search for Another Location

Airport or City:

Trip Planner

Search our weather history database for the weather conditions in past years. The results will help you decide how hot, cold, wet, or windy it might be!

Date:

Astronomy

Jul. 26, 2013 Rise Set
Actual Time 4:35 AM AKDT 9:40 PM AKDT
Civil Twilight 3:33 AM AKDT 10:41 PM AKDT
Nautical Twilight 1:41 AM AKDT 12:36 AM AKDT
Astronomical Twilight Sun does not rise Sun does not rise
Moon 10:23 PM AKDT (7/26) 10:48 AM AKDT (7/26)
Length of Visible Light 19h 07m
Length of Day
17h 04m
Waning Gibbous, 79% of the Moon is Illuminated
Jul 26
Waning Gibbous
Jul 29
Last Quarter
Aug 6
New
Aug 14
First Quarter
Aug 20
Full

Hourly Weather History & Observations

Time (AKDT) Temp. Dew Point Humidity Pressure Visibility Wind Dir Wind Speed Gust Speed Precip Events Conditions
12:34 AM 57.2 °F 53.6 °F 88% 30.15 in 10.0 mi East 6.9 mph - N/A   Overcast
12:54 AM 57.9 °F 54.0 °F 87% 30.16 in 10.0 mi Variable 6.9 mph - N/A   Overcast
1:27 AM 57.2 °F 53.6 °F 88% 30.15 in 10.0 mi ENE 8.1 mph - N/A   Overcast
1:54 AM 57.9 °F 54.0 °F 87% 30.16 in 10.0 mi East 9.2 mph - N/A   Overcast
2:54 AM 57.9 °F 53.1 °F 84% 30.17 in 10.0 mi ESE 4.6 mph - N/A   Overcast
3:30 AM 57.2 °F 53.6 °F 88% 30.16 in 10.0 mi ENE 8.1 mph 16.1 mph N/A   Overcast
3:38 AM 57.2 °F 53.6 °F 88% 30.16 in 10.0 mi Variable 4.6 mph - N/A   Overcast
3:54 AM 57.9 °F 53.1 °F 84% 30.17 in 10.0 mi Variable 5.8 mph - N/A   Overcast
4:16 AM 57.2 °F 53.6 °F 88% 30.16 in 10.0 mi ENE 5.8 mph - N/A   Overcast
4:49 AM 57.2 °F 51.8 °F 82% 30.16 in 10.0 mi ENE 9.2 mph - N/A   Overcast
4:54 AM 57.9 °F 52.0 °F 81% 30.17 in 10.0 mi Variable 5.8 mph - N/A   Overcast
5:54 AM 57.9 °F 52.0 °F 81% 30.18 in 10.0 mi East 6.9 mph - N/A   Overcast
6:45 AM 57.2 °F 51.8 °F 82% 30.18 in 10.0 mi East 6.9 mph - N/A   Overcast
6:54 AM 57.9 °F 52.0 °F 81% 30.19 in 10.0 mi East 5.8 mph - N/A   Overcast
7:05 AM 57.2 °F 51.8 °F 82% 30.18 in 10.0 mi East 6.9 mph - N/A   Overcast
7:54 AM 57.0 °F 53.1 °F 87% 30.20 in 10.0 mi Variable 5.8 mph - 0.00 in Rain Light Rain
8:11 AM 57.2 °F 53.6 °F 88% 30.20 in 10.0 mi East 8.1 mph - 0.00 in Rain Light Rain
8:54 AM 57.9 °F 53.1 °F 84% 30.21 in 10.0 mi ENE 9.2 mph - 0.00 in   Overcast
9:49 AM 59.0 °F 53.6 °F 82% 30.21 in 10.0 mi East 6.9 mph - 0.00 in   Overcast
9:54 AM 59.0 °F 53.1 °F 81% 30.22 in 10.0 mi ENE 4.6 mph - 0.00 in Rain Light Rain
10:33 AM 57.2 °F 53.6 °F 88% 30.22 in 10.0 mi ENE 5.8 mph - 0.00 in Rain Light Rain
10:54 AM 59.0 °F 54.0 °F 83% 30.22 in 10.0 mi East 5.8 mph - 0.01 in Rain Light Rain
11:35 AM 60.8 °F 53.6 °F 77% 30.22 in 10.0 mi ESE 6.9 mph - 0.00 in Rain Light Rain
11:54 AM 61.0 °F 54.0 °F 78% 30.23 in 10.0 mi ESE 8.1 mph - 0.00 in   Overcast
12:09 PM 60.8 °F 53.6 °F 77% 30.22 in 10.0 mi East 5.8 mph - N/A   Overcast
12:38 PM 60.8 °F 53.6 °F 77% 30.23 in 10.0 mi ESE 8.1 mph - N/A   Overcast
12:47 PM 60.8 °F 53.6 °F 77% 30.23 in 10.0 mi ESE 8.1 mph - N/A   Overcast
12:54 PM 61.0 °F 54.0 °F 78% 30.24 in 10.0 mi ESE 10.4 mph - N/A   Overcast
1:22 PM 60.8 °F 53.6 °F 77% 30.23 in 10.0 mi SE 10.4 mph - N/A   Overcast
1:54 PM 62.1 °F 55.0 °F 78% 30.24 in 10.0 mi SE 10.4 mph - N/A   Overcast
2:54 PM 62.1 °F 53.1 °F 72% 30.25 in 10.0 mi SE 10.4 mph - N/A   Overcast
3:54 PM 62.1 °F 53.1 °F 72% 30.25 in 10.0 mi SE 10.4 mph 16.1 mph N/A   Overcast
4:54 PM 62.1 °F 53.1 °F 72% 30.25 in 10.0 mi East 9.2 mph - N/A   Overcast
5:54 PM 61.0 °F 52.0 °F 72% 30.26 in 10.0 mi East 6.9 mph - N/A   Overcast
6:54 PM 61.0 °F 51.1 °F 70% 30.26 in 10.0 mi ENE 5.8 mph - N/A   Overcast
7:54 PM 60.1 °F 52.0 °F 75% 30.26 in 10.0 mi East 9.2 mph - N/A   Overcast
8:54 PM 60.1 °F 51.1 °F 72% 30.27 in 10.0 mi East 5.8 mph - N/A   Overcast
9:54 PM 59.0 °F 51.1 °F 75% 30.28 in 10.0 mi East 4.6 mph - N/A   Overcast
10:54 PM 59.0 °F 51.1 °F 75% 30.29 in 10.0 mi Variable 3.5 mph - N/A   Overcast
11:54 PM 57.0 °F 52.0 °F 83% 30.30 in 10.0 mi ESE 3.5 mph - N/A   Overcast